| time (UTC) | temp C | wind direction | speed KPH | gust KPH | rain 1hr cm | rain 24hr cm | rain mn cm | humidity % | barometer mb |
| 20260510011553 | 21 | 148 | 0.0 | 3.2 | 0.00 | 0.25 | 0.10 | 90 | 1013.0 |
| 20260510010049 | 21 | 111 | 0.0 | 3.2 | 0.00 | 0.25 | 0.10 | 90 | 1012.9 |
| 20260510004551 | 21 | 0 | 0.0 | 3.2 | 0.00 | 0.25 | 0.10 | 90 | 1012.7 |
| 20260510003058 | 21 | 0 | 0.0 | 3.2 | 0.00 | 0.25 | 0.10 | 90 | 1012.5 |
| 20260510001553 | 21 | 0 | 0.0 | 3.2 | 0.00 | 0.25 | 0.10 | 89 | 1012.5 |
| 20260510000055 | 21 | 140 | 0.0 | 3.2 | 0.00 | 0.25 | 0.10 | 89 | 1012.4 |
| 20260509234603 | 21 | 0 | 0.0 | 4.8 | 0.00 | 0.25 | 0.10 | 89 | 1012.3 |
| 20260509233056 | 22 | 0 | 0.0 | 3.2 | 0.00 | 0.25 | 0.10 | 88 | 1012.4 |
| 20260509231606 | 22 | 0 | 0.0 | 3.2 | 0.00 | 0.25 | 0.10 | 88 | 1012.3 |
| 20260509224555 | 22 | 0 | 0.0 | 3.2 | 0.00 | 0.25 | 0.10 | 88 | 1012.0 |
| 20260509223049 | 22 | 0 | 0.0 | 3.2 | 0.00 | 0.25 | 0.10 | 88 | 1012.2 |
| 20260509221552 | 22 | 0 | 0.0 | 3.2 | 0.00 | 0.25 | 0.10 | 88 | 1012.1 |
| 20260509220056 | 22 | 0 | 0.0 | 4.8 | 0.00 | 0.25 | 0.10 | 89 | 1012.2 |
| 20260509214550 | 22 | 99 | 0.0 | 3.2 | 0.00 | 0.25 | 0.10 | 88 | 1012.1 |
| 20260509213053 | 22 | 0 | 0.0 | 3.2 | 0.03 | 0.25 | 0.10 | 88 | 1012.4 |
| 20260509211559 | 22 | 0 | 0.0 | 3.2 | 0.03 | 0.25 | 0.10 | 88 | 1012.6 |
| 20260509210107 | 22 | 0 | 0.0 | 3.2 | 0.03 | 0.25 | 0.10 | 88 | 1012.3 |
| 20260509204553 | 22 | 0 | 0.0 | 3.2 | 0.03 | 0.25 | 0.10 | 88 | 1012.4 |
| 20260509203056 | 22 | 0 | 0.0 | 4.8 | 0.00 | 0.23 | 0.08 | 88 | 1012.6 |
| 20260509201559 | 22 | 223 | 0.0 | 4.8 | 0.00 | 0.23 | 0.08 | 87 | 1012.3 |
| 20260509200100 | 23 | 0 | 0.0 | 4.8 | 0.00 | 0.23 | 0.08 | 87 | 1012.3 |
| 20260509194559 | 23 | 121 | 0.0 | 4.8 | 0.00 | 0.23 | 0.08 | 87 | 1012.6 |
| 20260509193100 | 23 | 0 | 0.0 | 3.2 | 0.00 | 0.23 | 0.08 | 86 | 1012.3 |
| 20260509191555 | 24 | 0 | 0.0 | 3.2 | 0.00 | 0.23 | 0.08 | 83 | 1012.3 |
| 20260509190108 | 25 | 348 | 0.0 | 11.3 | 0.00 | 0.23 | 0.08 | 81 | 1012.3 |
| 20260509184557 | 25 | 0 | 0.0 | 4.8 | 0.00 | 0.23 | 0.08 | 78 | 1012.2 |
| 20260509183055 | 25 | 101 | 0.0 | 3.2 | 0.00 | 0.23 | 0.08 | 76 | 1012.3 |
| 20260509181554 | 26 | 0 | 0.0 | 3.2 | 0.00 | 0.23 | 0.08 | 75 | 1012.5 |
| 20260509174658 | 26 | 213 | 0.0 | 3.2 | 0.00 | 0.23 | 0.08 | 73 | 1012.7 |
| 20260509174554 | 26 | 213 | 0.0 | 3.2 | 0.00 | 0.23 | 0.08 | 73 | 1012.7 |
| 20260509173057 | 26 | 298 | 0.0 | 3.2 | 0.00 | 0.23 | 0.08 | 73 | 1012.7 |
| 20260509171550 | 26 | 197 | 0.0 | 4.8 | 0.00 | 0.23 | 0.08 | 74 | 1012.8 |
| 20260509170104 | 26 | 0 | 0.0 | 4.8 | 0.00 | 0.23 | 0.08 | 74 | 1012.8 |
| 20260509164550 | 27 | 0 | 0.0 | 4.8 | 0.00 | 0.23 | 0.08 | 72 | 1013.0 |
| 20260509163102 | 27 | 301 | 0.0 | 4.8 | 0.00 | 0.23 | 0.08 | 75 | 1013.1 |
| 20260509161554 | 26 | 109 | 1.6 | 11.3 | 0.00 | 0.23 | 0.08 | 78 | 1013.1 |
| 20260509160059 | 25 | 0 | 0.0 | 6.4 | 0.00 | 0.23 | 0.08 | 82 | 1013.4 |
| 20260509154607 | 24 | 0 | 0.0 | 8.0 | 0.00 | 0.23 | 0.08 | 84 | 1013.5 |
| 20260509153052 | 24 | 115 | 0.0 | 4.8 | 0.00 | 0.23 | 0.08 | 85 | 1013.6 |
| 20260509151558 | 23 | 96 | 0.0 | 4.8 | 0.00 | 0.23 | 0.08 | 87 | 1013.4 |
| 20260509150108 | 23 | 0 | 0.0 | 3.2 | 0.00 | 0.23 | 0.08 | 89 | 1013.8 |
| 20260509144601 | 22 | 0 | 0.0 | 3.2 | 0.00 | 0.23 | 0.08 | 90 | 1013.8 |
| 20260509143105 | 22 | 0 | 0.0 | 3.2 | 0.00 | 0.23 | 0.08 | 92 | 1014.0 |
| 20260509141555 | 22 | 0 | 0.0 | 3.2 | 0.00 | 0.23 | 0.08 | 94 | 1013.7 |
| 20260509140058 | 21 | 0 | 0.0 | 3.2 | 0.00 | 0.23 | 0.08 | 96 | 1013.5 |
| 20260509134556 | 21 | 0 | 0.0 | 3.2 | 0.00 | 0.23 | 0.08 | 97 | 1013.5 |
| 20260509133101 | 21 | 0 | 0.0 | 3.2 | 0.00 | 0.23 | 0.08 | 97 | 1013.5 |
| 20260509131552 | 21 | 0 | 0.0 | 3.2 | 0.00 | 0.23 | 0.08 | 98 | 1013.5 |
| 20260509130101 | 21 | 0 | 0.0 | 3.2 | 0.00 | 0.23 | 0.08 | 98 | 1013.8 |
| 20260509124600 | 21 | 0 | 0.0 | 0.0 | 0.00 | 0.23 | 0.08 | 98 | 1013.7 |
| 20260509123104 | 20 | 0 | 0.0 | 3.2 | 0.00 | 0.23 | 0.08 | 97 | 1013.4 |
| 20260509121601 | 18 | 0 | 0.0 | 3.2 | 0.00 | 0.23 | 0.08 | 97 | 1013.1 |
| 20260509120054 | 18 | 0 | 0.0 | 3.2 | 0.00 | 0.23 | 0.08 | 96 | 1013.1 |
| 20260509114602 | 17 | 0 | 0.0 | 0.0 | 0.00 | 0.23 | 0.08 | 96 | 1013.3 |
| 20260509113107 | 17 | 0 | 0.0 | 3.2 | 0.00 | 0.23 | 0.08 | 96 | 1013.1 |
| 20260509111556 | 17 | 0 | 0.0 | 0.0 | 0.00 | 0.23 | 0.08 | 96 | 1013.0 |
| 20260509110056 | 17 | 0 | 0.0 | 0.0 | 0.00 | 0.23 | 0.08 | 96 | 1013.0 |
| 20260509104549 | 17 | 0 | 0.0 | 3.2 | 0.00 | 0.23 | 0.08 | 96 | 1012.8 |
| 20260509103052 | 17 | 0 | 0.0 | 3.2 | 0.00 | 0.23 | 0.08 | 96 | 1012.4 |
| 20260509101554 | 17 | 0 | 0.0 | 0.0 | 0.00 | 0.23 | 0.08 | 96 | 1012.2 |
| 20260509100051 | 17 | 0 | 0.0 | 3.2 | 0.00 | 0.23 | 0.08 | 95 | 1012.1 |
| 20260509094552 | 17 | 0 | 0.0 | 1.6 | 0.00 | 0.23 | 0.08 | 95 | 1012.0 |
| 20260509093049 | 18 | 0 | 0.0 | 0.0 | 0.00 | 0.23 | 0.08 | 96 | 1012.1 |
| 20260509091558 | 18 | 0 | 0.0 | 3.2 | 0.00 | 0.23 | 0.08 | 96 | 1012.4 |
| 20260509090111 | 18 | 0 | 0.0 | 3.2 | 0.00 | 0.23 | 0.08 | 96 | 1012.0 |
| 20260509084551 | 18 | 0 | 0.0 | 3.2 | 0.00 | 0.23 | 0.08 | 96 | 1013.1 |
| 20260509083056 | 18 | 0 | 0.0 | 3.2 | 0.00 | 0.23 | 0.08 | 95 | 1012.3 |
| 20260509081554 | 18 | 0 | 0.0 | 3.2 | 0.00 | 0.23 | 0.08 | 95 | 1012.0 |
| 20260509080106 | 18 | 0 | 0.0 | 3.2 | 0.00 | 0.23 | 0.08 | 95 | 1012.7 |
| 20260509074551 | 18 | 0 | 0.0 | 3.2 | 0.00 | 0.23 | 0.08 | 95 | 1013.1 |
| 20260509073105 | 18 | 0 | 0.0 | 3.2 | 0.00 | 0.23 | 0.08 | 95 | 1012.8 |
| 20260509071551 | 18 | 251 | 0.0 | 3.2 | 0.00 | 0.23 | 0.08 | 95 | 1012.5 |
| 20260509070056 | 17 | 0 | 0.0 | 0.0 | 0.00 | 0.23 | 0.08 | 95 | 1012.8 |
| 20260509064555 | 17 | 0 | 0.0 | 0.0 | 0.00 | 0.23 | 0.08 | 95 | 1013.1 |
| 20260509063103 | 18 | 0 | 0.0 | 3.2 | 0.00 | 0.23 | 0.08 | 95 | 1013.7 |
| 20260509061549 | 18 | 0 | 0.0 | 3.2 | 0.03 | 0.23 | 0.08 | 94 | 1013.4 |
| 20260509060054 | 18 | 0 | 0.0 | 3.2 | 0.03 | 0.23 | 0.08 | 94 | 1014.0 |
| 20260509054552 | 18 | 0 | 0.0 | 3.2 | 0.03 | 0.23 | 0.08 | 94 | 1013.4 |
| 20260509053049 | 18 | 0 | 0.0 | 3.2 | 0.03 | 0.23 | 0.08 | 94 | 1013.5 |
| 20260509051552 | 18 | 0 | 0.0 | 0.0 | 0.03 | 0.20 | 0.05 | 94 | 1014.5 |
| 20260509050059 | 18 | 0 | 0.0 | 3.2 | 0.05 | 0.20 | 0.05 | 94 | 1014.5 |
| 20260509044547 | 18 | 0 | 0.0 | 0.0 | 0.10 | 0.20 | 0.05 | 93 | 1014.3 |
| 20260509043049 | 18 | 0 | 0.0 | 3.2 | 0.13 | 0.20 | 0.05 | 93 | 1014.7 |
| 20260509041554 | 19 | 0 | 0.0 | 3.2 | 0.13 | 0.18 | 0.03 | 93 | 1014.7 |
| 20260509040052 | 19 | 86 | 0.0 | 3.2 | 0.15 | 0.15 | 0.00 | 93 | 1014.0 |
| 20260509034559 | 19 | 0 | 0.0 | 3.2 | 0.10 | 0.10 | 0.10 | 93 | 1015.3 |
| 20260509033107 | 19 | 0 | 0.0 | 0.0 | 0.08 | 0.08 | 0.08 | 92 | 1015.7 |
| 20260509031552 | 19 | 0 | 0.0 | 1.6 | 0.05 | 0.05 | 0.05 | 91 | 1015.4 |
| 20260509030053 | 19 | 0 | 0.0 | 0.0 | 0.00 | 0.00 | 0.00 | 90 | 1016.3 |
| 20260509024603 | 19 | 0 | 0.0 | 0.0 | 0.00 | 0.00 | 0.00 | 90 | 1016.3 |
| 20260509023048 | 20 | 0 | 0.0 | 0.0 | 0.00 | 0.00 | 0.00 | 89 | 1016.3 |
| 20260509021547 | 20 | 0 | 0.0 | 0.0 | 0.00 | 0.00 | 0.00 | 88 | 1016.3 |
| 20260509020056 | 20 | 0 | 0.0 | 0.0 | 0.00 | 0.00 | 0.00 | 88 | 1016.2 |
| 20260509014551 | 20 | 0 | 0.0 | 0.0 | 0.00 | 0.00 | 0.00 | 87 | 1016.0 |
| 20260509013056 | 20 | 0 | 0.0 | 0.0 | 0.00 | 0.00 | 0.00 | 86 | 1015.2 |